Content
SEND FEEDBACK

Daily
Averages
Monthly
Summary
Mexico

PUEBLA, PUEBLA


Home > North America > Mexico > Puebla
Elevation: 7104 feet     Latitude: 19 02N     Longitude: 098 12W

WEATHER
 
SELECT A DAY
Number of Records: 121,213;   Date Range: 1/1/95 - 9/21/14
 
SHARE

PRINT THIS DATA

[ ← Previous Day ]
WEATHER ALMANAC - APRIL 5, 2013
[ Next Day → ]
[ °C ]   °F
Weather ElementAverageHighLow
Temperature62 °F77 °F (2:41 pm)46.4 °F (4:45 am)
Dewpoint45.2 °F52 °F (8:50 pm)36 °F (2:50 pm)
Humidity56.7 %87 % (4:45 am)14 % (2:50 pm)
Barometer30.22 in30.43 in (8:40 am)29.72 in (2:50 pm)
Wind Speed6.3 mph20.7 mph (5:25 pm)
Wind Gust23 mph (5:40 pm)
Weather ElementAverage
Visibility7 mi
Wind DirectionSSE (167.9 °)

Weather ElementTotal
Precipitation---
Heating Degree Days3.3 (Base 65)
Growing Degree Days11.7 (Base 50)
Averaged from 26 records on April 5, 2013
WEATHER CONDITIONS BREAKOUT
WIND DIRECTION BREAKOUT
WEATHER BY HOUR - APRIL 5, 2013
[ °C ]   °F
Local TimeTemperatureDewpointHumidityBarometerVisibilityWind DirectionWind SpeedGust SpeedPrecipitationEventsConditions
4:45 AM46.4 °F42.8 °F87 %30.37 in6.0 miNNW (330°)4.6 mphScattered Clouds
5:43 AM46.4 °F42.8 °F87 %30.39 in6.0 miNW (310°)4.6 mphScattered Clouds
5:45 AM54.0 °F50.0 °F82 %29.91 in3.0 miNE (40°)2.2 mphScattered Clouds
6:40 AM46.4 °F41.0 °F81 %30.40 in7.0 miNW (320°)6.9 mphScattered Clouds
7:41 AM50.0 °F44.6 °F82 %30.42 in7.0 miNorth (350°)6.9 mphMostly Cloudy
8:40 AM57.2 °F44.6 °F63 %30.43 in7.0 miNNW (330°)4.6 mphMostly Cloudy
8:50 AM62.0 °F47.0 °F48 %29.99 in12.0 miENE (60°)2.2 mphPartly Cloudy
9:42 AM64.4 °F44.6 °F49 %30.43 in7.0 miNE (50°)5.8 mphClear
11:40 AM73.4 °F44.6 °F36 %30.40 in7.0 miSE (140°)3.5 mphPartly Cloudy
11:50 AM75.0 °F48.0 °F27 %29.97 in12.0 miESE (120°)4.5 mphPartly Cloudy
12:40 PM73.4 °F42.8 °F33 %30.37 in7.0 miSE (140°)13.8 mphMostly Cloudy
1:45 PM75.2 °F41.0 °F29 %30.32 in7.0 miSouth (180°)4.6 mphMostly Cloudy
2:41 PM77.0 °F41.0 °F28 %30.29 in7.0 miESE (110°)5.8 mphMostly Cloudy
2:50 PM76.0 °F36.0 °F14 %29.72 in9.0 miSE (140°)6.7 mphHaze
3:41 PM73.4 °F37.4 °F27 %30.26 in8.0 miESE (110°)4.6 mphMostly Cloudy
4:40 PM69.8 °F37.4 °F31 %30.27 in8.0 miNNE (20°)5.8 mphMostly Cloudy
5:25 PM60.8 °F48.2 °F63 %30.30 in6.0 miSW (220°)20.7 mphRainRain
5:40 PM59.0 °F50.0 °F72 %30.32 in6.0 miSW (220°)11.5 mph23.0 mphRainLight Rain
5:50 PM68.0 °F50.0 °F43 %29.74 in6.0 miENE (60°)4.5 mphHaze
6:40 PM59.0 °F48.2 °F67 %30.32 in7.0 miSouth (170°)5.8 mphMostly Cloudy
7:40 PM57.2 °F48.2 °F72 %30.34 in8.0 miSW (230°)11.5 mphMostly Cloudy
8:40 PM57.2 °F48.2 °F72 %30.37 in8.0 miNE (40°)5.8 mphMostly Cloudy
8:50 PM60.0 °F52.0 °F69 %29.81 in3.0 miCalmPartly Cloudy
9:41 PM57.2 °F46.4 °F67 %30.39 in8.0 miNW (320°)9.2 mphMostly Cloudy
10:41 PM55.4 °F46.4 °F72 %30.37 in8.0 miNNE (20°)6.9 mphMostly Cloudy
11:50 PM58.0 °F52.0 °F73 %29.88 in3.0 miCalmOvercast
Hourly data recorded from MMPB, located miles away from Puebla, Puebla







STORIES FROM OUR PARTNERS